This is the latest recevied weather packets stored in our database for station/object N5RPG. If no packets are shown the sender has not sent any weather packets the latest 1 day(s).
| Time | Temp. | Humidity | Pressure | Rain* | Wind** | Luminosity | Snow |
|---|---|---|---|---|---|---|---|
| 1777995229 | 22.78° C | 84% | 1008.8 hPa | 0 mm | 1.79 m/s, 275° | 131 W/m² | - |
| 1777994926 | 22.78° C | 84% | 1008.7 hPa | 0 mm | 0.89 m/s, 117° | 156 W/m² | - |
| 1777994624 | 22.78° C | 84% | 1008.7 hPa | 0 mm | 2.24 m/s, 143° | 107 W/m² | - |
| 1777994323 | 22.78° C | 83% | 1008.8 hPa | 0 mm | 2.68 m/s, 212° | 89 W/m² | - |
| 1777994020 | 22.78° C | 83% | 1008.7 hPa | 0 mm | 1.34 m/s, 171° | 103 W/m² | - |
| 1777993717 | 22.78° C | 84% | 1008.9 hPa | 0 mm | 0.45 m/s, 150° | 126 W/m² | - |
| 1777993415 | 22.22° C | 84% | 1008.6 hPa | 0 mm | 1.34 m/s, 163° | 158 W/m² | - |
| 1777993114 | 22.22° C | 85% | 1008.6 hPa | 0 mm | 0.89 m/s, 282° | 140 W/m² | - |
| 1777992813 | 22.22° C | 85% | 1008.8 hPa | 0 mm | 3.58 m/s, 220° | 102 W/m² | - |
| 1777992510 | 22.22° C | 85% | 1008.5 hPa | 0 mm | 0.45 m/s, 171° | 108 W/m² | - |
| 1777992209 | 22.22° C | 85% | 1008.6 hPa | 0 mm | 1.34 m/s, 252° | 81 W/m² | - |
| 1777991905 | 22.22° C | 85% | 1008.4 hPa | 0 mm | 1.79 m/s, 303° | 77 W/m² | - |
| 1777991603 | 22.22° C | 84% | 1008.3 hPa | 0 mm | 2.24 m/s, 229° | 69 W/m² | - |
| 1777991300 | 22.22° C | 84% | 1008.6 hPa | 0 mm | 2.24 m/s, 207° | 89 W/m² | - |
| 1777990998 | 22.22° C | 84% | 1008.6 hPa | 0 mm | 1.79 m/s, 283° | 78 W/m² | - |
| 1777990695 | 21.67° C | 84% | 1008.5 hPa | 0 mm | 0.89 m/s, 262° | 96 W/m² | - |
| 1777990392 | 21.67° C | 85% | 1008.6 hPa | 0 mm | 1.79 m/s, 275° | 89 W/m² | - |
| 1777990088 | 21.67° C | 85% | 1008.5 hPa | 0 mm | 0.89 m/s, 190° | 75 W/m² | - |
| 1777989784 | 21.67° C | 85% | 1008.2 hPa | 0 mm | 0.89 m/s, 340° | 86 W/m² | - |
| 1777989481 | 21.67° C | 85% | 1008.4 hPa | 0 mm | 0.89 m/s, 124° | 29 W/m² | - |
| 1777989178 | 21.67° C | 86% | 1008.5 hPa | 0 mm | 1.34 m/s, 267° | 84 W/m² | - |
| 1777988874 | 21.67° C | 86% | 1008.6 hPa | 0 mm | 0.89 m/s, 84° | 73 W/m² | - |
| 1777988571 | 21.11° C | 86% | 1008.6 hPa | 0 mm | 0 m/s | 51 W/m² | - |
| 1777988267 | 21.11° C | 86% | 1008.6 hPa | 0 mm | 1.79 m/s, 207° | 36 W/m² | - |
| 1777987964 | 21.11° C | 86% | 1008.6 hPa | 0 mm | 0.89 m/s, 185° | 38 W/m² | - |
* Rain latest hour (hover to see other rain measurements)
** Current wind speed in m/s (hover to see current wind gust speed)